Regional Weather Roundup
Issued by NWS Newport/Morehead, NC

Current Version | Previous Version | Text Only | Print | Product List | Glossary On
Versions: 1 2 3 4 5 6 7 8 9 10 11 12 13 14 15 16 17 18 19 20 21 22 23 24 25 26 27 28 29 30 31 32 33 34 35 36 37 38 39 40 41 42 43 44 45 46 47 48 49 50
611
ASUS42 KMHX 300813
RWRMHX
WEATHER ROUNDUP FOR EASTERN NORTH CAROLINA
NATIONAL WEATHER SERVICE NEWPORT/MOREHEAD CITY NC
400 AM EDT FRI SEP 30 2016

NOTE: "FAIR" INDICATES FEW OR NO CLOUDS BELOW 12,000 FEET
WITH NO SIGNIFICANT WEATHER AND/OR OBSTRUCTIONS TO VISIBILITY

NCZ015>017-031-032-045>047-102-103-300900-
NORTH COAST

CITY           SKY/WX    TMP DP  RH WIND       PRES   REMARKS
EDENTON        FOG       72  72 100 CALM      30.02F VSB 1/4
ELIZABETH CITY FOG       68  68 100 CALM      30.02S VSB 1
KITTY HAWK       N/A     73  73 100 CALM      30.01R FOG
MANTEO         FOG       70  70 100 CALM      30.02S VSB 3/4

$$

NCZ045>047-081-094-103-104-300900-
CENTRAL COAST

CITY           SKY/WX    TMP DP  RH WIND       PRES   REMARKS
FRISCO         CLEAR     76  74  93 CALM      30.01F

$$

NCZ095-097-098-100-101-300900-
SOUTHERN COAST

CITY           SKY/WX    TMP DP  RH WIND       PRES   REMARKS
BEAUFORT       PTCLDY    78  74  87 S5        29.99S
CEDAR ISLAND   NOT AVBL
JACKSONVILLE   CLEAR     71  70  96 CALM      29.98S
PINEY ISLAND   SUNNY    N/A N/A N/A SE5       29.99F
WILMINGTON     PTCLDY    76  74  93 SE3       29.98S


$$

NCZ011>013-027>030-043-044-078>080-089-090>093-098-300900-
COASTAL PLAIN

CITY           SKY/WX    TMP DP  RH WIND       PRES   REMARKS
AHOSKIE        CLOUDY    69  69  99 CALM      30.03R FOG
CLINTON        PTCLDY    71  71 100 CALM      29.98S FOG
ELIZABETHTOWN  FOG       70  70 100 CALM      29.97F VSB 1
GOLDSBORO      MOCLDY    70  70 100 E6        29.97S
GREENVILLE     RAIN      72  72 100 E3        30.02F VSB 1
HAVELOCK       CLEAR     72  70  93 SE6       30.00S
KENANSVILLE    MOCLDY    68  68 100 CALM      29.98F FOG
KINSTON        FOG       71  71  99 NE3       30.00F VSB 1/4
NEW BERN       CLEAR     69  67  93 CALM      30.00F
RICHLANDS      CLEAR     69  68  96 NE3       29.99S
ROCKY MOUNT    CLOUDY    72  72 100 NE3       30.00F FOG
WASHINGTON     FOG       71  71  99 CALM      30.01S VSB 3/4
WHITEVILLE     NOT AVBL

$$

AMZ130-135-150-152-154-156-158-170-250-252-270-ANZ085-086-088-633-658-670-300900-
MARINE OBSERVATIONS

STATION/POSITION TIME  TEMP    WIND        PRES    WAVE   SWELL
                       AIR SEA DIR/SP/G            HT/PER HT/PER
                 (UTC) (F)     (DEG/KT/KT) (MB)    (FT/S) (FT/S)
CHESAPEAKE LIGHT NOT AVBL
64 E VA BEACH    0750   74 74  160/  4/  6 1016.3    8/11   8/11
DUCK             0742   75 76   70/  1/  1 1016.0
2 E DUCK         0741      76                N/A     5/10   2/11
OREGON INLET     0742   75 78  140/  1/  1 1016.3
13E OREGON INLT  0800      77                N/A     6/ 9   7/ 9
HATTERAS CG      0742   77 79  180/  1/  2 1015.9
DIAMOND BUOY     0750   79 76  200/  6/  6 1016.1    4/ 9   3/ 9
CAPE LOOKOUT     0800   79     170/  7/  8 1015.4
BEAUFORT LAB     0748   79 77  180/  8/  9 1015.0
30 SE NEW RVR IN 0708   81 82  190/ 14/ 17 1015.3
30 SE NEW RVR IN 0755      82                N/A     4/ 6
27 SE WRIGHTSVLE 0708   81 81  180/ 12/ 16 1015.5
5 SE WRIGHTSVLE  0708   80 80  190/ 12/ 16 1016.1
225 S CAPE HAT   0750   79 83  270/  6/ 10 1017.0    3/10   3/10
41 SE CHARLESTON 0750   82 82  190/ 14/ 16 1013.3    4/ 5   2/10

$$




USA.gov is the U.S. government's official web portal to all federal, state and local government web resources and services.